TimeAKST,TemperatureF,Dew PointF,Humidity,Sea Level PressureIn,VisibilityMPH,Wind Direction,Wind SpeedMPH,Gust SpeedMPH,PrecipitationIn,Events,Conditions,WindDirDegrees,DateUTC
12:13 AM,14.0,-0.4,53,29.77,1.8,North,42.6,57.5,0.00,,Clear,350,2011-11-16 09:13:00
12:20 AM,14.0,-2.2,49,29.77,3.0,North,34.5,51.8,0.00,,Clear,350,2011-11-16 09:20:00
12:38 AM,14.0,-2.2,49,29.77,2.0,North,36.8,51.8,0.00,,Clear,360,2011-11-16 09:38:00
12:49 AM,14.0,-2.2,49,29.76,5.0,North,29.9,44.9,0.00,,Haze,360,2011-11-16 09:49:00
12:53 AM,14.0,-2.9,47,29.77,7.0,North,28.8,43.7,0.00,,Clear,360,2011-11-16 09:53:00
1:13 AM,14.0,-0.4,53,29.75,1.8,North,42.6,51.8,0.00,Snow,Blowing Snow,360,2011-11-16 10:13:00
1:25 AM,14.0,-0.4,53,29.75,3.0,North,32.2,49.5,0.00,,Clear,360,2011-11-16 10:25:00
1:53 AM,14.0,-0.9,52,29.76,3.0,North,34.5,54.1,0.00,,Clear,360,2011-11-16 10:53:00
2:03 AM,14.0,-0.4,53,29.75,2.5,North,33.4,51.8,0.00,,Clear,350,2011-11-16 11:03:00
2:13 AM,14.0,-0.4,53,29.75,3.0,North,34.5,48.3,0.00,,Clear,360,2011-11-16 11:13:00
2:27 AM,14.0,-0.4,53,29.75,2.5,North,38.0,50.6,0.00,Snow,Blowing Snow,360,2011-11-16 11:27:00
2:38 AM,14.0,-2.2,49,29.75,3.0,North,35.7,52.9,0.00,Snow,Blowing Snow,360,2011-11-16 11:38:00
2:46 AM,14.0,-0.4,53,29.75,1.8,North,39.1,62.1,0.00,,Clear,350,2011-11-16 11:46:00
3:00 AM,14.0,-0.4,53,29.75,2.5,North,36.8,52.9,0.00,Snow,Blowing Snow,360,2011-11-16 12:00:00
3:46 AM,14.0,-2.2,49,29.76,-9999.0,North,-9999.0,-,0.00,,Unknown,0,2011-11-16 12:46:00
3:53 AM,14.0,-2.0,49,29.76,-9999.0,North,-9999.0,-,0.00,,Unknown,0,2011-11-16 12:53:00
4:53 AM,-9999,-9999,N/A,29.76,-9999.0,North,-9999.0,-,N/A,,Unknown,0,2011-11-16 13:53:00
5:53 AM,-9999,-9999,N/A,29.79,-9999.0,North,-9999.0,-,N/A,,Unknown,0,2011-11-16 14:53:00
6:53 AM,-9999,-9999,N/A,29.80,-9999.0,North,-9999.0,-,N/A,,Unknown,0,2011-11-16 15:53:00
7:10 AM,-9999,-9999,N/A,29.81,10.0,North,28.8,40.3,N/A,,Clear,360,2011-11-16 16:10:00
7:53 AM,-9999,-9999,N/A,29.81,10.0,North,28.8,40.3,N/A,,Clear,350,2011-11-16 16:53:00
8:53 AM,-9999,-9999,N/A,29.83,10.0,North,28.8,40.3,N/A,,Clear,350,2011-11-16 17:53:00
9:53 AM,15.1,-2.0,47,29.86,10.0,North,27.6,40.3,N/A,,Clear,360,2011-11-16 18:53:00
10:53 AM,16.0,-2.9,43,29.86,10.0,North,34.5,51.8,0.00,,Clear,350,2011-11-16 19:53:00
11:53 AM,16.0,-2.9,43,29.88,10.0,North,27.6,43.7,N/A,,Clear,360,2011-11-16 20:53:00
12:53 PM,16.0,-2.0,45,29.90,10.0,North,28.8,43.7,N/A,,Clear,360,2011-11-16 21:53:00
1:53 PM,17.1,-2.9,41,29.91,7.0,North,31.1,46.0,N/A,,Clear,360,2011-11-16 22:53:00
2:53 PM,17.6,-2.2,42,29.90,10.0,North,27.6,39.1,N/A,,Clear,360,2011-11-16 23:53:00
3:53 PM,16.0,-4.0,41,29.91,10.0,North,26.5,41.4,N/A,,Clear,10,2011-11-17 00:53:00
4:53 PM,15.1,-4.0,43,29.91,10.0,North,24.2,39.1,N/A,,Clear,360,2011-11-17 01:53:00
5:53 PM,16.0,-2.9,43,29.92,10.0,North,32.2,40.3,N/A,,Clear,10,2011-11-17 02:53:00
6:53 PM,15.1,-2.9,45,29.94,9.0,North,32.2,42.6,N/A,,Clear,360,2011-11-17 03:53:00
7:53 PM,15.1,-5.1,41,29.96,10.0,North,26.5,34.5,N/A,,Clear,10,2011-11-17 04:53:00
8:53 PM,14.0,-4.0,45,29.95,10.0,North,28.8,36.8,N/A,,Clear,10,2011-11-17 05:53:00
9:53 PM,14.0,-4.0,45,29.97,10.0,NNE,23.0,35.7,N/A,,Clear,20,2011-11-17 06:53:00
10:53 PM,15.1,-4.0,43,29.97,10.0,North,23.0,34.5,N/A,,Clear,360,2011-11-17 07:53:00
11:53 PM,15.1,-4.0,43,29.98,10.0,NNE,23.0,34.5,N/A,,Clear,20,2011-11-17 08:53:00